#timestamp,LO_Frequency,Hit,StdDev 
1682456415.2,286046997.0,N
1682456435.9,286046998.5,N
1682456455.7,286046999.0,N
1682456475.6,286046998.1,N
1682456495.4,286047001.0,N
1682456515.2,286047001.0,N
1682456535.1,286047000.0,N
1682456536.0,286047000.0,N
1682456555.8,286047000.6,N
1682456575.7,286047000.8,N
1682456595.5,286046998.5,N
1682456615.3,286046998.2,N
1682456635.2,286047000.7,N
1682456655.9,286047001.0,N
1682456675.7,286047000.4,N
1682456695.6,286047001.1,N
1682456715.4,286047000.0,N
1682456735.2,286047000.9,N
1682456755.1,286046999.8,N
1682456756.0,286046999.8,N
1682456775.8,286047002.8,N
1682456795.7,286047000.5,N
1682456815.5,286047000.0,N
1682456835.3,286047000.6,N
1682456855.2,286046999.0,N
1682456875.0,286046998.0,N
1682456875.9,286046998.0,N
1682456895.8,286046997.7,N
1682456915.6,286046996.8,N
1682456935.4,286046998.9,N
1682456955.3,286046998.1,N
1682456975.1,286047000.7,N
1682456995.8,286047000.7,N
1682457015.7,286047000.0,N
1682457035.5,286047002.4,N
1682457055.4,286047002.1,N
1682457075.2,286047002.7,N
1682457095.0,286047000.2,N
1682457095.9,286047000.2,N
1682457115.8,286047002.8,N
1682457135.6,286046999.9,N
1682457155.5,286047002.4,N
1682457175.3,286047001.3,N
1682457195.1,286047000.2,N
1682457215.9,286047002.4,N
1682457235.7,286047000.2,N
1682457255.5,286046999.8,N
1682457275.4,286047001.0,N
1682457295.2,286046999.8,N
1682457315.1,286046999.7,N
1682457316.0,286046999.7,N
1682457335.8,286047002.5,N
1682457355.6,286047002.4,N
1682457375.5,286047002.8,N
1682457395.3,286047000.2,N
1682457415.1,286047000.1,N
1682457435.9,286047002.2,N
1682457455.7,286047002.0,N
1682457475.6,286047002.5,N
1682457495.4,286047002.1,N
1682457515.2,286047002.6,N
1682457535.1,286047002.6,N
1682457536.0,286047002.6,N
1682457555.8,286047000.3,N
1682457575.6,286047000.4,N
1682457595.5,286047002.7,N
1682457615.3,286047002.5,N
1682457635.1,286047002.6,N
1682457655.9,286047000.8,N
1682457675.7,286047002.8,N
1682457695.6,286047000.1,N
1682457715.4,286047000.3,N
1682457735.2,286046999.7,N
1682457755.1,286046998.2,N
1682457756.0,286046998.2,N
1682457775.8,286047000.6,N
1682457795.7,286047001.0,N
1682457815.5,286046998.7,N
1682457835.3,286046998.2,N
1682457855.2,286047000.4,N
1682457875.9,286047000.6,N
1682457895.7,286047000.5,N
1682457915.6,286047000.1,N
1682457935.4,286047001.7,N
1682457955.2,286047002.5,N
1682457975.1,286046999.7,N
1682457976.0,286046999.7,N
1682457995.8,286047004.0,N
1682458015.7,286047002.7,N
1682458035.5,286047002.3,N
1682458055.3,286047002.1,N
1682458075.2,286047001.9,N
1682458095.0,286047003.9,N
1682458095.9,286047003.9,N
1682458115.8,286047004.4,N
1682458135.6,286047002.3,N
1682458155.4,286046999.7,N
1682458175.3,286047002.3,N
1682458195.1,286047000.9,N
1682458215.8,286047000.2,N
1682458235.7,286047000.1,N
1682458255.5,286047002.3,N
1682458275.4,286047000.1,N
1682458295.2,286047000.2,N
1682458315.0,286047001.5,N
1682458315.9,286047001.5,N
1682458335.8,286047002.5,N
1682458355.6,286047002.6,N
1682458375.4,286047002.1,N
1682458395.3,286047002.3,N
1682458415.1,286047000.3,N
1682458435.9,286047002.3,N
1682458455.7,286047004.4,Y
1682458475.5,286047000.3,P
1682458495.4,286047001.2,N
1682458515.2,286046998.6,N
1682458535.1,286047000.1,N
1682458536.0,286047000.1,N
1682458555.8,286047000.8,N
1682458575.6,286046998.5,N
1682458595.5,286046998.2,N
1682458615.3,286046998.4,N
1682458635.1,286047001.2,N
1682458655.9,286046998.1,N
1682458675.7,286047000.4,N
1682458695.6,286046999.1,N
1682458715.4,286046997.5,N
1682458735.2,286046996.8,N
1682458755.1,286046997.4,N
1682458756.0,286046997.4,N
1682458775.8,286046997.3,N
1682458795.6,286046996.7,N
1682458815.5,286046999.4,N
1682458835.3,286047000.4,N
1682458855.2,286047001.0,N
1682458875.9,286046999.4,N
1682458895.7,286046998.1,N
1682458915.6,286047000.6,N
1682458935.4,286047000.0,N
1682458955.2,286047002.5,N
1682458975.1,286047002.0,N
1682458976.0,286047002.0,N
1682458995.8,286047001.7,N
1682459015.7,286047002.7,N
1682459035.5,286047000.4,N
1682459055.3,286047001.0,N
1682459075.2,286047000.7,N
1682459095.0,286047002.7,N
1682459095.9,286047002.7,N
1682459115.7,286047002.2,N
1682459135.6,286047002.7,N
1682459155.4,286047000.5,N
1682459175.3,286046999.9,N
1682459195.1,286046998.8,N
1682459196.0,286046998.8,N
1682459215.8,286047000.0,N
1682459235.7,286047000.3,N
1682459255.5,286046998.6,N
1682459275.3,286047001.1,N
1682459295.2,286046998.9,N
1682459315.0,286046998.4,N
1682459315.9,286046998.4,N
1682459335.8,286046999.2,N
1682459355.6,286046998.2,N
1682459375.4,286046998.1,N
1682459395.3,286046999.1,N
1682459415.1,286046998.1,N
1682459435.9,286047000.3,N
1682459455.7,286046999.8,N
1682459475.5,286047000.1,N
1682459495.4,286046999.8,N
1682459515.2,286047002.4,N
1682459535.0,286047000.1,N
1682459535.9,286047000.1,N
1682459555.8,286047000.6,N
1682459575.6,286047000.9,N
1682459595.4,286046998.3,N
1682459615.3,286047000.8,N
1682459635.1,286046998.5,N
1682459655.9,286046998.6,N
1682459675.7,286046998.5,N
1682459695.5,286047000.6,N
1682459715.4,286046998.3,N
1682459735.2,286046999.0,N
1682459755.0,286046999.2,N
1682459755.9,286046999.2,N
1682459775.8,286046999.6,N
1682459795.6,286046997.0,N
1682459815.5,286046997.3,N
1682459835.3,286046997.8,N
1682459855.1,286046995.0,Y
1682459875.9,286046997.6,P
1682459895.7,286046997.4,P
1682459915.5,286046997.8,N
1682459935.4,286046995.3,Y
1682459955.2,286046999.1,P
1682459975.1,286046997.4,P
1682459976.0,286046997.4,P
1682459995.8,286046995.2,Y
